CW6261 Weather Reports


Display with metric or nautical units.
time (UTC)temp
F
wind
direction
speed
MPH
gust
MPH
rain 1hr
in
rain 24hr
in
rain mn
in
humidity
%
barometer
mb
20260504120202 59 187 4.0 7.0 0.00 0.00 0.00 83 101.3
20260504110702 61 195 4.0 6.0 0.00 0.00 0.00 79 101.3
20260504100202 61 194 2.0 4.0 0.00 0.00 0.00 78 101.4
20260504081702 62 175 3.0 6.0 0.00 0.00 0.00 74 101.4
20260504081202 62 189 6.0 7.0 0.00 0.00 0.00 74 101.4
20260504080702 62 193 1.0 8.0 0.00 0.00 0.00 74 101.4
20260504080203 63 181 4.0 5.0 0.00 0.00 0.00 73 101.4
20260504070202 64 200 3.0 5.0 0.00 0.00 0.00 70 101.5
20260504060202 64 184 3.0 9.0 0.00 0.00 0.00 65 101.6
20260504050703 64 170 2.0 6.0 0.00 0.00 0.00 63 101.6
20260504050202 64 148 2.0 4.0 0.00 0.00 0.00 62 101.6
20260504045703 65 180 3.0 5.0 0.00 0.00 0.00 62 101.6
20260504045202 65 143 2.0 6.0 0.00 0.00 0.00 61 101.6
20260504044202 66 186 5.0 6.0 0.00 0.00 0.00 59 101.6
20260504043702 66 178 5.0 13.0 0.00 0.00 0.00 59 101.6
20260504043202 65 197 2.0 3.0 0.00 0.00 0.00 58 101.6
20260504042702 66 192 5.0 5.0 0.00 0.00 0.00 57 101.6
20260504042202 66 170 6.0 10.0 0.00 0.00 0.00 57 101.6
20260504041702 66 184 2.0 6.0 0.00 0.00 0.00 57 101.6
20260504041202 66 175 3.0 9.0 0.00 0.00 0.00 57 101.6
20260504040702 65 177 3.0 5.0 0.00 0.00 0.00 58 101.6
20260504040202 64 163 4.0 5.0 0.00 0.00 0.00 59 101.7
20260504035702 64 176 2.0 4.0 0.00 0.00 0.00 61 101.7
20260504035202 63 172 1.0 1.0 0.00 0.00 0.00 61 101.7
20260504034203 64 108 0.0 2.0 0.00 0.00 0.00 59 101.7
20260504033202 65 140 0.0 1.0 0.00 0.00 0.00 57 101.7
20260504032702 65 140 1.0 1.0 0.00 0.00 0.00 56 101.6
20260504032202 65 174 1.0 2.0 0.00 0.00 0.00 54 101.6
20260504031702 66 111 1.0 1.0 0.00 0.00 0.00 54 101.6
20260504031203 66 137 1.0 2.0 0.00 0.00 0.00 53 101.6
20260504030202 67 213 1.0 2.0 0.00 0.00 0.00 50 101.6
20260504025703 67 180 1.0 1.0 0.00 0.00 0.00 51 101.6
20260504025203 67 169 1.0 2.0 0.00 0.00 0.00 50 101.6
20260504024703 67 174 1.0 2.0 0.00 0.00 0.00 50 101.6
20260504024203 68 142 1.0 1.0 0.00 0.00 0.00 49 101.6
20260504023702 68 210 1.0 2.0 0.00 0.00 0.00 48 101.6
20260504023202 68 216 2.0 3.0 0.00 0.00 0.00 47 101.6
20260504021701 69 195 2.0 3.0 0.00 0.00 0.00 46 101.6
20260504021202 69 183 2.0 3.0 0.00 0.00 0.00 46 101.6
20260504020704 69 195 2.0 2.0 0.00 0.00 0.00 46 101.6
20260504015202 69 208 2.0 3.0 0.00 0.00 0.00 45 101.6
20260504014702 69 182 1.0 2.0 0.00 0.00 0.00 44 101.6
20260504014202 70 184 1.0 2.0 0.00 0.00 0.00 44 101.6
20260504013702 70 185 0.0 2.0 0.00 0.00 0.00 44 101.6
20260504013202 70 217 1.0 2.0 0.00 0.00 0.00 43 101.5
20260504012202 71 172 1.0 3.0 0.00 0.00 0.00 42 101.5
20260504011702 71 180 0.0 1.0 0.00 0.00 0.00 42 101.5
20260504011202 72 210 5.0 5.0 0.00 0.00 0.00 41 101.5
20260504010702 72 183 3.0 4.0 0.00 0.00 0.00 40 101.5
20260504010202 72 205 1.0 6.0 0.00 0.00 0.00 40 101.6
20260504005703 72 172 3.0 6.0 0.00 0.00 0.00 40 101.6
20260504004702 73 171 4.0 7.0 0.00 0.00 0.00 39 101.6
20260504004202 73 235 1.0 4.0 0.00 0.00 0.00 39 101.6
20260504003703 73 203 4.0 5.0 0.00 0.00 0.00 39 101.6
20260504003202 73 193 3.0 6.0 0.00 0.00 0.00 39 101.6
20260504002702 74 170 4.0 6.0 0.00 0.00 0.00 40 101.6
20260504002202 74 157 2.0 5.0 0.00 0.00 0.00 40 101.6
20260504001702 74 216 2.0 6.0 0.00 0.00 0.00 39 101.6
20260504000204 74 186 2.0 6.0 0.00 0.00 0.00 38 101.6
20260503235202 75 161 1.0 5.0 0.00 0.00 0.00 36 101.6
20260503234702 75 207 2.0 7.0 0.00 0.00 0.00 36 101.6
20260503233702 75 224 2.0 6.0 0.00 0.00 0.00 37 101.6
20260503233202 75 195 6.0 8.0 0.00 0.00 0.00 37 101.6
20260503232702 75 200 2.0 7.0 0.00 0.00 0.00 36 101.6
20260503232202 75 127 1.0 5.0 0.00 0.00 0.00 36 101.6
20260503231702 75 193 3.0 8.0 0.00 0.00 0.00 35 101.6
20260503231202 76 172 2.0 10.0 0.00 0.00 0.00 35 101.6
20260503230202 76 159 2.0 6.0 0.00 0.00 0.00 33 101.6
20260503225702 77 254 4.0 4.0 0.00 0.00 0.00 32 101.6
20260503225202 77 212 2.0 9.0 0.00 0.00 0.00 31 101.6
20260503224702 77 174 2.0 6.0 0.00 0.00 0.00 32 101.6
20260503224202 77 200 4.0 11.0 0.00 0.00 0.00 31 101.6
20260503223703 77 208 1.0 6.0 0.00 0.00 0.00 34 101.6
20260503223202 77 163 2.0 6.0 0.00 0.00 0.00 34 101.7
20260503222702 77 187 11.0 12.0 0.00 0.00 0.00 35 101.7
20260503222202 77 165 4.0 7.0 0.00 0.00 0.00 34 101.7
20260503221703 77 211 7.0 10.0 0.00 0.00 0.00 32 101.7
20260503220702 77 157 2.0 11.0 0.00 0.00 0.00 32 101.7
20260503220202 77 180 2.0 9.0 0.00 0.00 0.00 33 101.6
20260503215202 77 157 3.0 11.0 0.00 0.00 0.00 35 101.6
20260503214702 76 187 2.0 8.0 0.00 0.00 0.00 34 101.7
20260503213702 77 192 2.0 6.0 0.00 0.00 0.00 34 101.7
20260503213202 77 195 3.0 9.0 0.00 0.00 0.00 32 101.7
20260503212702 76 233 4.0 9.0 0.00 0.00 0.00 32 101.7
20260503212202 76 218 3.0 5.0 0.00 0.00 0.00 33 101.7
20260503211702 76 241 2.0 8.0 0.00 0.00 0.00 32 101.8
20260503210702 77 184 9.0 10.0 0.00 0.00 0.00 34 101.8
20260503210203 77 210 3.0 11.0 0.00 0.00 0.00 33 101.7
20260503205703 77 116 2.0 12.0 0.00 0.00 0.00 33 101.7
20260503205203 77 208 3.0 5.0 0.00 0.00 0.00 32 101.7
20260503204702 77 199 8.0 10.0 0.00 0.00 0.00 31 101.7
20260503204201 77 193 10.0 11.0 0.00 0.00 0.00 32 101.7
20260503203702 77 255 2.0 11.0 0.00 0.00 0.00 32 101.7
20260503203202 76 221 3.0 14.0 0.00 0.00 0.00 32 101.8
20260503202702 78 159 2.0 13.0 0.00 0.00 0.00 32 101.8
20260503202202 78 213 6.0 8.0 0.00 0.00 0.00 32 101.8
20260503200702 77 176 8.0 11.0 0.00 0.00 0.00 31 101.9
20260503200202 77 98 0.0 10.0 0.00 0.00 0.00 31 101.8
20260503195704 77 175 7.0 9.0 0.00 0.00 0.00 31 101.8
20260503195202 77 194 1.0 6.0 0.00 0.00 0.00 32 101.8
20260503194702 77 165 6.0 9.0 0.00 0.00 0.00 34 101.8
20260503194202 77 181 4.0 9.0 0.00 0.00 0.00 31 101.8
20260503193702 76 194 2.0 5.0 0.00 0.00 0.00 33 101.8
20260503193202 77 154 7.0 11.0 0.00 0.00 0.00 32 101.9
20260503192703 76 215 5.0 8.0 0.00 0.00 0.00 31 101.9
20260503192202 77 181 2.0 9.0 0.00 0.00 0.00 31 101.9
20260503191702 77 241 4.0 8.0 0.00 0.00 0.00 32 102.0
20260503191202 76 208 4.0 6.0 0.00 0.00 0.00 36 102.0
20260503190702 77 148 2.0 5.0 0.00 0.00 0.00 35 102.0
20260503185702 76 195 4.0 8.0 0.00 0.00 0.00 31 101.9
20260503185202 77 208 7.0 12.0 0.00 0.00 0.00 35 101.9
20260503184703 76 202 6.0 7.0 0.00 0.00 0.00 35 101.9
20260503184202 76 203 2.0 7.0 0.00 0.00 0.00 35 101.9
20260503183202 77 236 2.0 6.0 0.00 0.00 0.00 33 102.0
20260503182702 77 165 1.0 8.0 0.00 0.00 0.00 32 102.2
20260503182203 76 171 2.0 6.0 0.00 0.00 0.00 36 102.2
20260503181702 76 149 1.0 5.0 0.00 0.00 0.00 36 102.2
20260503181202 77 205 3.0 11.0 0.00 0.00 0.00 34 102.2
20260503175702 75 186 2.0 5.0 0.00 0.00 0.00 36 102.2
20260503175202 75 200 3.0 6.0 0.00 0.00 0.00 37 102.2
20260503174702 75 246 2.0 11.0 0.00 0.00 0.00 36 102.2
20260503174202 75 189 5.0 9.0 0.00 0.00 0.00 35 102.2
20260503173702 75 171 2.0 9.0 0.00 0.00 0.00 35 102.2
20260503173202 75 56 1.0 6.0 0.00 0.00 0.00 37 102.2
20260503172702 75 149 2.0 7.0 0.00 0.00 0.00 36 102.2
20260503172202 76 188 11.0 11.0 0.00 0.00 0.00 35 102.2
20260503171702 75 47 0.0 6.0 0.00 0.00 0.00 38 102.3
20260503171203 76 229 3.0 9.0 0.00 0.00 0.00 34 102.3
20260503170702 75 241 1.0 4.0 0.00 0.00 0.00 39 102.3
20260503170202 74 216 1.0 4.0 0.00 0.00 0.00 36 102.2
20260503160202 72 255 2.0 5.0 0.00 0.00 0.00 45 102.2
20260503150202 68 237 2.0 4.0 0.00 0.00 0.00 52 102.2
20260503140202 62 236 0.0 3.0 0.00 0.00 0.00 66 102.2
20260503131203 57 239 2.0 3.0 0.00 0.00 0.00 76 102.2
20260503130702 57 207 3.0 4.0 0.00 0.00 0.00 76 102.2